Whidbey Island, WA
on Wednesday, January 23, 2013

Wednesday
Previous Day Next Day
Daily Summary
 ActualAverageRecord
Temperature
Mean Temperature °F °F  
Max Temperature 46°F 45°F 59°F (2005)
Min Temperature 36°F 35°F 23°F (2008)
Degree Days
Heating Degree Days 24    
Moisture
Dew Point 36°F   
Average Humidity 82    
Maximum Humidity 89    
Minimum Humidity 61    
Precipitation
Precipitation 0.18 in in in ()
Wind
Wind Speed 10 mph   
Max Wind Speed 23 mph   
Max Gust Speed 33 mph   
Visibility 9 miles   
Events Rain   
Averages and records for this station are not official NWS values.
Key: T is trace of precipitation, MM is missing value
Source: NWS Daily Summary
Seasonal Weather Averages
Time(PST)TemperatureDew PointHumidity Pressure Visibility Wind DirectionWind SpeedGust SpeedPrecipitationEvents Conditions
12:56 AM 36.0°F 33.1°F 89% 29.94 in 7.0 miles Calm Calm - N/A   Overcast
1:56 AM 37.0°F 34.0°F 89% 29.95 in 7.0 miles ESE 10.4 mph - N/A   Overcast
2:56 AM 37.9°F 35.1°F 89% 29.95 in 9.0 miles East 5.8 mph - N/A   Overcast
3:56 AM 37.9°F 34.0°F 86% 29.95 in 9.0 miles East 3.5 mph - N/A   Overcast
4:56 AM 39.9°F 35.1°F 83% 29.92 in 10.0 miles East 10.4 mph - N/A   Overcast
5:25 AM 39.2°F 33.8°F 81% 29.88 in 10.0 miles East 17.3 mph - 0.00 in Rain Light Rain
5:56 AM 39.9°F 35.1°F 83% 29.88 in 10.0 miles East 19.6 mph - 0.00 in   Overcast
6:25 AM 42.8°F 33.8°F 70% 29.86 in 8.0 miles ESE 13.8 mph - 0.00 in Rain Light Rain
6:56 AM 43.0°F 33.1°F 68% 29.87 in 8.0 miles SE 13.8 mph - 0.00 in Rain Light Rain
7:05 AM 42.8°F 32.0°F 66% 29.85 in 8.0 miles SE 15.0 mph - 0.00 in   Overcast
7:56 AM 44.1°F 32.0°F 63% 29.86 in 10.0 miles SSE 12.7 mph - 0.00 in   Overcast
8:39 AM 44.6°F 32.0°F 61% 29.85 in 10.0 miles SE 13.8 mph - 0.00 in Rain Light Rain
8:56 AM 44.1°F 32.0°F 63% 29.87 in 10.0 miles SE 13.8 mph - 0.00 in Rain Light Rain
9:56 AM 42.1°F 37.9°F 85% 29.87 in 6.0 miles SSE 6.9 mph - 0.01 in Rain Light Rain
10:56 AM 46.0°F 41.0°F 83% 29.84 in 8.0 miles SE 23.0 mph 33.4 mph 0.00 in Rain Light Rain
11:56 AM 46.0°F 39.9°F 79% 29.84 in 8.0 miles SSE 21.9 mph 28.8 mph 0.00 in   Overcast
12:56 PM 45.0°F 39.9°F 82% 29.83 in 8.0 miles SE 20.7 mph 27.6 mph N/A   Overcast
1:45 PM 44.6°F 39.2°F 81% 29.83 in 9.0 miles SSE 16.1 mph - 0.00 in Rain Light Rain
1:56 PM 44.1°F 39.0°F 82% 29.85 in 8.0 miles SSE 15.0 mph 23.0 mph 0.01 in Rain Light Rain
2:56 PM 43.0°F 39.0°F 86% 29.87 in 7.0 miles SSE 12.7 mph - 0.02 in Rain Light Rain
3:56 PM 42.1°F 39.0°F 89% 29.90 in 3.0 miles SE 5.8 mph - 0.08 in Rain Rain
4:56 PM 42.1°F 39.0°F 89% 29.93 in 5.0 miles SE 6.9 mph - 0.04 in Rain Light Rain
5:56 PM 41.0°F 37.9°F 89% 29.94 in 10.0 miles SE 11.5 mph - 0.01 in Rain Light Rain
6:44 PM 41.0°F 37.4°F 87% 29.94 in 10.0 miles SE 10.4 mph - 0.01 in Rain Light Rain
6:56 PM 41.0°F 37.9°F 89% 29.96 in 10.0 miles SSE 12.7 mph - 0.01 in Rain Light Rain
7:56 PM 41.0°F 37.9°F 89% 30.00 in 10.0 miles SSE 9.2 mph - 0.00 in Rain Light Rain
8:56 PM 41.0°F 37.9°F 89% 30.04 in 8.0 miles SE 12.7 mph - 0.00 in Rain Light Rain
9:17 PM 41.0°F 37.4°F 87% 30.04 in 10.0 miles SSE 11.5 mph - 0.00 in   Overcast
9:56 PM 41.0°F 37.9°F 89% 30.07 in 10.0 miles SSE 10.4 mph - 0.00 in   Mostly Cloudy
10:56 PM 41.0°F 37.9°F 89% 30.11 in 10.0 miles East 5.8 mph - N/A   Mostly Cloudy
11:56 PM 39.9°F 37.0°F 89% 30.15 in 10.0 miles SSE 5.8 mph - N/A   Mostly Cloudy
Moon Phase
Jan. 23 Jan. 26 Feb. 03 Feb. 10 Feb. 17
Sunrise:07:49 AM (PST) Moon Rise:02:07 PM (PST)
Sunset:04:56 PM (PST) Moon Set:05:09 AM (PST)

Copyright © 2014 The Weather Underground, Inc.